Overview Statistics Trail Chart Weather Telemetry Raw packets
 

This is the latest recevied weather packets stored in our database for station/object W7BTL. If no packets are shown the sender has not sent any weather packets the latest 10 day(s).

<< 5 6 7 8 9 10 11 >>
Time Temp. Humidity Pressure Rain* Wind** Luminosity Snow
1788619044 20° C 85% 1013.2 hPa 0 mm - 73 W/m² -
1788618743 20.56° C 86% 1013.4 hPa 0 mm - 66 W/m² -
1788618441 19.44° C 90% 1013.4 hPa 0 mm - 69 W/m² -
1788618136 18.89° C 95% 1013.3 hPa 0 mm - 63 W/m² -
1788617832 18.33° C 97% 1013.3 hPa 0 mm - 55 W/m² -
1788617528 17.78° C 97% 1013.3 hPa 0 mm - 48 W/m² -
1788617222 17.22° C 97% 1013.2 hPa 0 mm - 40 W/m² -
1788616917 16.67° C 97% 1013.2 hPa 0 mm - 33 W/m² -
1788616612 15.56° C 97% 1012.8 hPa 0 mm - 26 W/m² -
1788616308 15.56° C 96% 1012.9 hPa 0 mm - 19 W/m² -
1788616007 15.56° C 96% 1012.9 hPa 0 mm - 13 W/m² -
1788615706 15.56° C 96% 1012.8 hPa 0 mm - 10 W/m² -
1788615402 15.56° C 96% 1012.9 hPa 0 mm - 7 W/m² -
1788615101 15.56° C 96% 1012.8 hPa 0 mm - 4 W/m² -
1788614801 15.56° C 96% 1012.7 hPa 0 mm - 2 W/m² -
1788614496 15.56° C 96% 1012.9 hPa 0 mm - 1 W/m² -
1788614191 15.56° C 96% 1012.7 hPa 0 mm - 0 W/m² -
1788613887 15.56° C 96% 1012.9 hPa 0 mm - 0 W/m² -
1788613587 15.56° C 95% 1012.6 hPa 0 mm - 0 W/m² -
1788613287 15.56° C 95% 1012.6 hPa 0 mm - 0 W/m² -
1788612986 16.11° C 95% 1012.4 hPa 0 mm - 0 W/m² -
1788612683 15.56° C 95% 1012.6 hPa 0 mm - 0 W/m² -
1788612379 16.11° C 95% 1012.5 hPa 0 mm - 0 W/m² -
1788612075 16.11° C 95% 1012.7 hPa 0 mm - 0 W/m² -
1788611770 16.11° C 95% 1012.5 hPa 0 mm - 0 W/m² -

* Rain latest hour (hover to see other rain measurements)
** Current wind speed in m/s (hover to see current wind gust speed)